[keps] orb12103.amsat

Ray Hoad ray.hoad at mypbmail.com
Thu Apr 12 19:28:31 PDT 2012


SB KEPS @ AMSAT  $ORB12103.O
Orbital Elements  12103.OSCAR

HR AMSAT ORBITAL ELEMENTS FOR OSCAR SATELLITES
FROM WA5QGD FORT WORTH,TX April 12, 2012
Send SUBSCRIBE KEPS/UNSUBSCRIBE KEPS to majordomo at amsat.org only
BID: ORB12103.O
TO ALL RADIO AMATEURS BT

Satellite: AO-07
Catalog number: 07530
Epoch time:      12103.54519982
Element set:     354
Inclination:      101.4022 deg
RA of node:       103.2943 deg
Eccentricity:    0.0012120
Arg of perigee:   051.2603 deg
Mean anomaly:     308.9548 deg
Mean motion:   12.53588723 rev/day
Decay rate:       -2.7e-07 rev/day^2
Epoch rev:           71182
Checksum:              260

Satellite: FO-29
Catalog number: 24278
Epoch time:      12102.92572228
Element set:    0828
Inclination:      098.5798 deg
RA of node:       212.2642 deg
Eccentricity:    0.0350215
Arg of perigee:   200.7475 deg
Mean anomaly:     157.9145 deg
Mean motion:   13.52980339 rev/day
Decay rate:       -7.0e-08 rev/day^2
Epoch rev:           77299
Checksum:              330

Satellite: SO-33
Catalog number: 25509
Epoch time:      12102.74991369
Element set:    0207
Inclination:      031.4359 deg
RA of node:       349.6394 deg
Eccentricity:    0.0352766
Arg of perigee:   341.9491 deg
Mean anomaly:     016.8880 deg
Mean motion:   14.28694664 rev/day
Decay rate:       3.13e-06 rev/day^2
Epoch rev:           70314
Checksum:              326

Satellite: RS-22
Catalog number: 27939
Epoch time:      12103.79434673
Element set:     258
Inclination:      097.8175 deg
RA of node:       307.9490 deg
Eccentricity:    0.0014498
Arg of perigee:   111.2008 deg
Mean anomaly:     249.0749 deg
Mean motion:   14.63963907 rev/day
Decay rate:       3.63e-06 rev/day^2
Epoch rev:           45631
Checksum:              331

Satellite: VO-52
Catalog number: 28650
Epoch time:      12102.72491873
Element set:    0075
Inclination:      097.6024 deg
RA of node:       136.9166 deg
Eccentricity:    0.0025231
Arg of perigee:   259.3417 deg
Mean anomaly:     100.4953 deg
Mean motion:   14.82808091 rev/day
Decay rate:       9.42e-06 rev/day^2
Epoch rev:           37512
Checksum:              297

Satellite: HO-68
Catalog number: 36122
Epoch time:      12103.62103419
Element set:     370
Inclination:      100.3672 deg
RA of node:       164.2727 deg
Eccentricity:    0.0007147
Arg of perigee:   258.7615 deg
Mean anomaly:     101.2698 deg
Mean motion:   13.16294446 rev/day
Decay rate:       -4.4e-07 rev/day^2
Epoch rev:           11176
Checksum:              275

/EX
SB KEPS @ AMSAT  $ORB12103.D
Orbital Elements  12103.MICROS

HR AMSAT ORBITAL ELEMENTS FOR THE MICROSATS
FROM WA5QGD FORT WORTH,TX April 12, 2012
Send SUBSCRIBE KEPS/UNSUBSCRIBE KEPS to majordomo at amsat.org only
BID: ORB12103.D
TO ALL RADIO AMATEURS BT

Satellite: UO-11
Catalog number: 14781
Epoch time:      12102.74800745
Element set:    0845
Inclination:      097.9615 deg
RA of node:       162.8318 deg
Eccentricity:    0.0007911
Arg of perigee:   247.6340 deg
Mean anomaly:     112.4034 deg
Mean motion:   14.80377458 rev/day
Decay rate:       5.87e-06 rev/day^2
Epoch rev:           51010
Checksum:              290

Satellite: AO-16
Catalog number: 20439
Epoch time:      12102.85049126
Element set:    0458
Inclination:      098.4246 deg
RA of node:       048.1016 deg
Eccentricity:    0.0011215
Arg of perigee:   000.8247 deg
Mean anomaly:     359.2950 deg
Mean motion:   14.32035976 rev/day
Decay rate:       1.03e-06 rev/day^2
Epoch rev:           16050
Checksum:              266

Satellite: LO-19
Catalog number: 20442
Epoch time:      12102.88358069
Element set:    0367
Inclination:      098.3900 deg
RA of node:       051.3733 deg
Eccentricity:    0.0011890
Arg of perigee:   352.5454 deg
Mean anomaly:     007.5551 deg
Mean motion:   14.32255901 rev/day
Decay rate:       2.06e-06 rev/day^2
Epoch rev:           16069
Checksum:              284

Satellite: AO-27
Catalog number: 22825
Epoch time:      12102.67913363
Element set:    0077
Inclination:      098.5700 deg
RA of node:       046.5486 deg
Eccentricity:    0.0009262
Arg of perigee:   113.1792 deg
Mean anomaly:     247.0367 deg
Mean motion:   14.29444813 rev/day
Decay rate:       -3.1e-07 rev/day^2
Epoch rev:           96697
Checksum:              313

Satellite: IO-26
Catalog number: 22826
Epoch time:      12102.97265436
Element set:    0843
Inclination:      098.5641 deg
RA of node:       047.2242 deg
Eccentricity:    0.0009745
Arg of perigee:   105.6712 deg
Mean anomaly:     254.5545 deg
Mean motion:   14.29717616 rev/day
Decay rate:        8.5e-07 rev/day^2
Epoch rev:           96714
Checksum:              317

Satellite: GO-32
Catalog number: 25397
Epoch time:      12102.82284358
Element set:    0750
Inclination:      098.3585 deg
RA of node:       084.8186 deg
Eccentricity:    0.0002101
Arg of perigee:   103.7047 deg
Mean anomaly:     256.4367 deg
Mean motion:   14.23267367 rev/day
Decay rate:       1.04e-06 rev/day^2
Epoch rev:           71458
Checksum:              302

Satellite: NO-44
Catalog number: 26931
Epoch time:      12102.79742802
Element set:    0016
Inclination:      067.0523 deg
RA of node:       291.4464 deg
Eccentricity:    0.0007101
Arg of perigee:   274.0960 deg
Mean anomaly:     085.9300 deg
Mean motion:   14.29780724 rev/day
Decay rate:       1.42e-06 rev/day^2
Epoch rev:           54975
Checksum:              287

Satellite: SO-50
Catalog number: 27607
Epoch time:      12102.53833834
Element set:    0736
Inclination:      064.5571 deg
RA of node:       137.6342 deg
Eccentricity:    0.0084838
Arg of perigee:   261.7191 deg
Mean anomaly:     097.4285 deg
Mean motion:   14.72301232 rev/day
Decay rate:       3.77e-06 rev/day^2
Epoch rev:           50015
Checksum:              296

Satellite: CO-55
Catalog number: 27844
Epoch time:      12102.52310920
Element set:     349
Inclination:      098.7048 deg
RA of node:       111.8702 deg
Eccentricity:    0.0010636
Arg of perigee:   056.1401 deg
Mean anomaly:     304.0774 deg
Mean motion:   14.20991967 rev/day
Decay rate:       2.47e-06 rev/day^2
Epoch rev:           45542
Checksum:              284

Satellite: CO-57
Catalog number: 27848
Epoch time:      12102.51518635
Element set:     300
Inclination:      098.7123 deg
RA of node:       111.1662 deg
Eccentricity:    0.0010635
Arg of perigee:   063.1627 deg
Mean anomaly:     297.0615 deg
Mean motion:   14.20747365 rev/day
Decay rate:       1.92e-06 rev/day^2
Epoch rev:           45536
Checksum:              286

Satellite: AO-51
Catalog number: 28375
Epoch time:      12102.48725628
Element set:     238
Inclination:      098.1403 deg
RA of node:       070.8919 deg
Eccentricity:    0.0082615
Arg of perigee:   243.2574 deg
Mean anomaly:     116.0136 deg
Mean motion:   14.40924777 rev/day
Decay rate:       1.95e-06 rev/day^2
Epoch rev:           40916
Checksum:              308

Satellite: CP3
Catalog number: 31129
Epoch time:      12102.49248640
Element set:    0138
Inclination:      097.8825 deg
RA of node:       114.1926 deg
Eccentricity:    0.0101087
Arg of perigee:   331.3744 deg
Mean anomaly:     028.1904 deg
Mean motion:   14.52982565 rev/day
Decay rate:       4.88e-06 rev/day^2
Epoch rev:           26429
Checksum:              302

Satellite: CO-65
Catalog number: 32785
Epoch time:      12103.65756345
Element set:     279
Inclination:      097.8054 deg
RA of node:       166.2459 deg
Eccentricity:    0.0013641
Arg of perigee:   277.1696 deg
Mean anomaly:     082.7986 deg
Mean motion:   14.82817524 rev/day
Decay rate:       4.90e-06 rev/day^2
Epoch rev:           21405
Checksum:              338

Satellite: PRISM
Catalog number: 33493
Epoch time:      12103.64276630
Element set:     600
Inclination:      098.1613 deg
RA of node:       242.6976 deg
Eccentricity:    0.0019734
Arg of perigee:   146.9307 deg
Mean anomaly:     213.3136 deg
Mean motion:   14.83529228 rev/day
Decay rate:      2.713e-05 rev/day^2
Epoch rev:           17403
Checksum:              286

Satellite: SOHLA-1
Catalog number: 33496
Epoch time:      12102.87202754
Element set:    0713
Inclination:      098.0976 deg
RA of node:       215.0745 deg
Eccentricity:    0.0005667
Arg of perigee:   250.9241 deg
Mean anomaly:     109.1337 deg
Mean motion:   14.69915048 rev/day
Decay rate:       1.76e-06 rev/day^2
Epoch rev:           17250
Checksum:              298

Satellite: SO-67
Catalog number: 35870
Epoch time:      12103.70220853
Element set:     859
Inclination:      097.2389 deg
RA of node:       141.7539 deg
Eccentricity:    0.0003619
Arg of perigee:   063.4078 deg
Mean anomaly:     044.3695 deg
Mean motion:   15.23250957 rev/day
Decay rate:      3.251e-05 rev/day^2
Epoch rev:           14264
Checksum:              314

Satellite: TISAT-1
Catalog number: 36799
Epoch time:      12103.84212941
Element set:     876
Inclination:      098.0654 deg
RA of node:       179.7007 deg
Eccentricity:    0.0015539
Arg of perigee:   029.4056 deg
Mean anomaly:     330.7986 deg
Mean motion:   14.81719509 rev/day
Decay rate:      1.487e-05 rev/day^2
Epoch rev:            9481
Checksum:              338

Satellite: STUDSAT
Catalog number: 36801
Epoch time:      12103.87029277
Element set:     374
Inclination:      098.0715 deg
RA of node:       180.1734 deg
Eccentricity:    0.0013476
Arg of perigee:   014.9761 deg
Mean anomaly:     345.1831 deg
Mean motion:   14.83656875 rev/day
Decay rate:      4.381e-05 rev/day^2
Epoch rev:            9483
Checksum:              310

Satellite: FO-69
Catalog number: 37227
Epoch time:      12103.47950675
Element set:    0152
Inclination:      071.9676 deg
RA of node:       096.9443 deg
Eccentricity:    0.0015220
Arg of perigee:   082.7588 deg
Mean anomaly:     277.5320 deg
Mean motion:   14.76995897 rev/day
Decay rate:       3.59e-06 rev/day^2
Epoch rev:           02639
Checksum:              351

